Regional Weather Roundup
Issued by NWS Upton, NY

Current Version | Previous Version | Text Only | Print | Product List | Glossary Off
Versions: 1 2 3 4 5 6 7 8 9 10 11 12 13 14 15 16 17 18 19 20 21 22 23 24 25 26 27 28 29 30 31 32 33 34 35 36 37 38 39 40 41 42 43 44 45 46 47 48 49 50
000 ASUS41 KOKX 311805 RWROKX REGIONAL WEATHER ROUNDUP NATIONAL WEATHER SERVICE NEW YORK NY 100 PM EST SAT JAN 31 2015 NOTE: "FAIR" INDICATES FEW OR NO CLOUDS BELOW 12,000 FEET WITH NO SIGNIFICANT WEATHER AND/OR OBSTRUCTIONS TO VISIBILITY. NYZ071-072-176-178-NJZ106-104-311900- NEW YORK CITY METRO AREA CITY SKY/WX TMP DP RH WIND PRES REMARKS CENTRAL PARK SUNNY 23 -3 32 VRB6G23 30.12F WCI 16 LAGUARDIA APRT SUNNY 23 3 42 NW23G32 30.10F WCI 7 KENNEDY INTL SUNNY 23 -1 35 NW28G36 30.10F WCI 6 NEWARK/LIBERTY SUNNY 23 0 36 NW21G32 30.12F WCI 8 BRNX BOT. GARD N/A N/A N/A N/A NW13 30.11F TETERBORO SUNNY 23 -3 32 NW13G24 30.12F WCI 11 $$ NYZ177-179-078>081-311900- LONG ISLAND NEW YORK CITY SKY/WX TMP DP RH WIND PRES REMARKS FARMINGDALE SUNNY 23 -2 33 NW17G32 30.06F WCI 9 ISLIP SUNNY 22 0 38 NW21G30 30.02F WCI 6 SHIRLEY SUNNY 21 -1 38 NW17G30 30.04S WCI 7 WESTHAMPTON SUNNY 21 -1 38 NW26G43 30.01F WCI 4 MONTAUK POINT N/A 21 2 43 NW22G30 29.94F WCI 5 $$ NYZ052-065-067-311900- HUDSON VALLEY CITY SKY/WX TMP DP RH WIND PRES REMARKS WHITE PLAINS SUNNY 20 0 41 NW22G30 30.03F WCI 3 NEWBURGH NOT AVBL MONTGOMERY SUNNY 20 -4 34 NW22G32 30.09F WCI 3 POUGHKEEPSIE SUNNY 22 -4 32 N13 30.09F WCI 10 ALBANY SUNNY 12 -9 38 NW17 30.14F WCI -5 $$ NJZ001-105-106-008-010-013-015-019>022-104-311900- NEW JERSEY CITY SKY/WX TMP DP RH WIND PRES REMARKS NEWARK/LIBERTY SUNNY 23 0 36 NW21G32 30.12F WCI 8 TETERBORO SUNNY 23 -3 32 NW13G24 30.12F WCI 11 CALDWELL SUNNY 23 -2 33 N10G17 30.13F WCI 12 MORRISTOWN SUNNY 23 0 36 NW14G24 30.14F WCI 11 SOMERVILLE SUNNY 24 0 35 NW10G20 30.13F WCI 14 SUSSEX SUNNY 20 -5 33 N13G25 30.11F WCI 7 ANDOVER N/A 21 -3 35 N8G17 30.12F WCI 11 TRENTON SUNNY 23 -1 35 NW15G21 30.16F WCI 10 MILLVILLE SUNNY 26 3 37 NW20G29 30.21F WCI 12 ATLANTIC CITY SUNNY 26 0 32 NW23G35 30.16F WCI 11 WRIGHTSTOWN SUNNY 24 0 36 W18G29 30.15F WCI 9 TOMS RIVER SUNNY 21 1 42 NW25G35 30.13F WCI 4 BELMAR SUNNY 21 0 39 NW24G35 30.11F WCI 4 $$ PAZ047>061-062-071-311900- EASTERN PENNSYLVANIA CITY SKY/WX TMP DP RH WIND PRES REMARKS PHILADELPHIA SUNNY 26 1 34 NW17 30.23F WCI 13 ALLENTOWN SUNNY 23 2 40 NW14G23 30.18F WCI 11 SCRANTON MOSUNNY 18 2 49 NW20G28 30.17F WCI 2 $$ CTZ002-004>006-009-010-012-RIZ004-006-007-MAZ004-011-015-311900- SOUTHERN NEW ENGLAND IN CT CITY SKY/WX TMP DP RH WIND PRES REMARKS BRADLEY INTL SUNNY 17 -7 34 N16G30 30.00F WCI 2 HARTFORD SUNNY 17 -7 34 N15G31 30.03F WCI 2 DANBURY SUNNY 18 -7 32 N17G23 30.04F WCI 3 WTRBRY/OXFORD SUNNY 16 -9 32 N24G35 29.99F WCI -3 BRIDGEPORT SUNNY 21 -3 35 NW22G33 30.04F WCI 5 MERIDEN SUNNY 19 -6 33 NW24G32 30.01F WCI 2 NEW HAVEN SUNNY 20 -5 33 NW20G35 30.02F WCI 4 CHESTER FAIR 18 -8 32 NW28G37 29.95S WCI -1 GROTON SUNNY 18 -5 36 NW20G36 29.94F WCI 2 WILLIMANTIC SUNNY 18 -7 32 W17G29 29.95S WCI 3 IN RI CITY SKY/WX TMP DP RH WIND PRES REMARKS PROVIDENCE N/A 20 -6 31 NW20G30 29.88S WCI 4 BLOCK ISLAND SUNNY 19 -2 38 NW23G31 29.87S WCI 2 WESTERLY SUNNY 19 -7 31 NW14G26 29.92F WCI 6 IN MA CITY SKY/WX TMP DP RH WIND PRES REMARKS BOSTON MOSUNNY 20 -5 33 NW25G39 29.84S WCI 2 WORCESTER SUNNY N/A N/A N/A NW20G29 29.83F WESTFIELD SUNNY 17 -6 35 NW21 29.99S WCI 0 PROVINCETOWN MOSUNNY 23 9 54 NW32G41 29.76S WCI 5 NANTUCKET MOSUNNY 24 5 44 NW26G37 29.75R WCI 8 $$ ANZ330-335-338-340-345-350-353-355-311900- COASTAL MARINE OBSERVATIONS STATION/POSITION TIME SKY/WX TEMP WIND PRES VSBY WAVE AIR SEA DIR/SP/G HT/PER (UTC) (F) (DEG/KT/KT) (MB) (MI) (FT/S) NY HARB ENTRANCE 1800 24 40 300/ 29/ 37 1018.1 6/ 5 4S FIRE IS NOT AVBL 20S FIRE ISLAND 1700 41 1018.9 8/ 6 23SW MTP 1800 N/A 9/ 6 HUDSON CANYON NOT AVBL EXECUTION ROCKS 1800 25 33 290/ 16/ 29 N/A WESTERN LI SOUND 1800 22 290/ 21/ 27 N/A 2/ 3 CENTRAL LI SOUND 1700 20 34 310/ 29/ 37 N/A 5/ 5 EASTERN LI SOUND NOT AVBL ROBBINS REEF 1700 21 310/ 26/ 31 1018.6 $$ >>>>>>>>>>>>>>>>>>>>>>>>>>>> KEY <<<<<<<<<<<<<<<<<<<<<<<<<<< > < > SKY/WX - SKY CONDITION/PRESENT WEATHER < > TMP - TEMPERATURE IN FAHRENHEIT < > DP - DEWPOINT IN FAHRENHEIT < > RH - RELATIVE HUMIDITY IN PERCENT < > WIND - DIRECTION AND SPEED IN MPH < > PRES - MEAN SEA LEVEL PRESSURE IN INCHES OF HG < > WCI - WIND CHILL INDEX < > VSB - VISIBILITY IN MILES < > HX - HEAT INDEX < > TC - TEMPERATURE IN CELSIUS < > VRB - VARIABLE WIND DIRECTION < > < >>>>>>>>>>>>>>>>>>>>>>>>>>>> KEY <<<<<<<<<<<<<<<<<<<<<<<<<<<

USA.gov is the U.S. government's official web portal to all federal, state and local government web resources and services.